sat.trackr.live / text

‹ back to catalog

STARLINK-3120

NORAD 49419 · 2021-104M

PAYLOAD ACTIVE UNKNOWN

§ Identity

Operator
Country
US
Launch date
2021-11-13
Launch site
AFETR
Launch vehicle
Mass (kg)
RCS (m²)

Purposes: comms

External: N2YO · Heavens-Above · Gunter

§ Orbital elements

Epoch: 2026-05-25T00:03:00.338400Z

Period
95.44 min
Inclination
53.2151°
Eccentricity
0.0000914
Mean motion
15.08830347 rev/d
Perigee alt
539.1 km
Apogee alt
540.4 km
Semi-major
6,917.9 km
B*
6.6937e-5
RAAN
246.5393°
Arg perigee
55.9447°
Mean anomaly
304.1632°
Rev number
25,014

§ Raw data

STARLINK-31201 49419U 21104M   26145.00208725  .00000777  00000+0  66937-4 0  99922 49419  53.2151 246.5393 0000914  55.9447 304.1632 15.08830347250146

JSON: /api/v1/satellites/49419 · /tle

For live sub-satellite position, see the globe view (requires WebGL).

§ Visibility from observer

Set your observer location to see the next 7 days of passes ≥ 10°. The values pass through the URL so the page stays shareable.

No JS? Fill the form by hand. The geolocation button needs JavaScript.